星链-2303 (STARLINK-2303 )

导读

STARLINK-2303是美国太空探索技术公司(SpaceX)星链互联网卫星星座中的一员,于2021年3月24日发射升空。星链计划旨在搭建全球卫星互联网络,为全球提供高速低延迟互联网服务,这颗卫星加入星座后,进一步扩充了星链低轨卫星网络的覆盖能力与服务容量。

Basic Information
目录编号:
47981
目录名称:
STARLINK-2303
国际标识:
2021-024E
轨道中心:
EARTH
卫星名称:
星链-2303
卫星全名:
星链-2303 (STARLINK-2303 )
卫星状态:
在轨 (已飞行1997 天)
发射日期:
2021-03-24 UTC
国别 :
美国 (US)
星等 :
--
This satellite is enrolled in the Space Conjunction Data Service (SCDS) and the current flight risk assessment level is: No High Risk
Orbit Information
数据来源 国际轨道数据
星历时间: 2026-09-11T13:05:31+0800
10小时前
查看轨道信息
半长轴: 6848.81km
偏心率: 0.0000881
轨道倾角: 53.160°
近地点辐角 78.340°
升交点赤经 189.076°
平近点角 281.770°
近地点: 470.069km
远地点: 471.277km
周期: 94.012分钟
每日圈数: 15.317226
Detailed Information
固有亮度:
5
最大亮度:
2.5
卫星平台:
Starlink V1.0
覆盖范围:
全球
运营商:
太空探索技术公司
运营商所在国:
美国
制造商(研发单位):
太空探索技术公司
制造商所在国:
美国
使用方式:
暂无
Satellite Introduction
星链(Starlink)计划是由太空探索技术公司(SpaceX)提出的一个巨型低轨卫星互联网星座项目,计划在2019年至2024年间在太空搭建由约1.2万颗卫星组成的“星链”网络,其中1584颗将部署在地球上空550千米处的近地轨道,并从2020年开始工作。该卫星仍在工作。
2D Orbit Map
3D Orbit Map
Orbit Altitude Analysis Chart
Orbit Inclination Analysis Chart
Orbit Comprehensive Analysis Chart
View Comprehensive Chart
Conjunction Data List
Event ID Objects TCA Miss Dist (km) Collision Risk Probability Collision Risk Index (CRI) Action
CDM_260909-040603-628304-798121
2026-09-09T
04:06:55+0000
0.815 km
远距离
4.424425E-5 中风险 0.68
CDM_260910-130504-798106-944022
2026-09-10T
13:05:57+0000
1.611 km
极远距离
4.163024E-6 低风险 0.47
CDM_260912-041504-798105-322821
2026-09-12T
04:15:46+0000
2.495 km
极远距离
1.658305E-6 低风险 0.39
CDM_260912-151404-798106-493321
2026-09-12T
15:14:06+0000
2.365 km
极远距离
1.499918E-6 低风险 0.39
CDM_260911-184704-798106-890721
2026-09-11T
18:47:59+0000
2.983 km
极远距离
1.179404E-6 低风险 0.36
CDM_260905-170504-798106-566821
2026-09-05T
17:05:15+0000
2.871 km
极远距离
1.131915E-6 低风险 0.36
CDM_260912-163004-798106-811121
2026-09-12T
16:30:21+0000
2.954 km
极远距离
8.855965E-7 极低风险 0.34
Miss Distance Evolution Trend with All Objects
Collision Probability Evolution Trend with All Objects